Weather History for Fremont, MI

Change the Weather History Date:

Thursday, April 11, 2013

  Actual Average (KMKG) Record (KMKG)
Temperature  
Mean Temperature 35 °F 45 °F  
Max Temperature 37 °F 54 °F 79 °F (1945)
Min Temperature 33 °F 36 °F 12 °F (1973)
Degree Days  
Heating Degree Days 30 20  
Month to date heating degree days 244  
Since 1 July heating degree days 5906  
Cooling Degree Days 0 0  
Month to date cooling degree days 0  
Year to date cooling degree days 0  
Moisture  
Dew Point 32 °F    
Average Humidity 90    
Maximum Humidity 97    
Minimum Humidity 69    
Precipitation  
Precipitation 0.00 in 0.10 in 2.66 in (2001)
Month to date precipitation 1.05  
Year to date precipitation 7.16  
Snow  
Snow 0.00 in 0.10 in 5.10 in (2007)
Month to date snowfall 1.6  
Since 1 July snowfall 93.0  
Snow Depth -    
Sea Level Pressure  
Sea Level Pressure 29.81 in    
Wind  
Wind Speed 17 mph (ENE)    
Max Wind Speed 31 mph    
Max Gust Speed 40 mph    
Visibility 7 miles    
Events Rain , Snow    
T = Trace of Precipitation, MM = Missing Value Source: NWS Daily Summary

Daily Weather History Graph

Daily Weather History Graph

Search for Another Location

Airport:

Trip Planner

Search our weather history database for the weather conditions in past years. The results will help you decide how hot, cold, wet, or windy it might be!

Date:

Astronomy

Apr. 11, 2013 Rise Set
Actual Time 7:07 AM EDT 8:22 PM EDT
Civil Twilight 6:38 AM EDT 8:52 PM EDT
Nautical Twilight 6:03 AM EDT 9:27 PM EDT
Astronomical Twilight 5:25 AM EDT 10:05 PM EDT
Moon 7:36 AM EDT (4/11) 9:59 PM EDT (4/11)
Length of Visible Light 14h 13m
Length of Day
13h 14m
New Moon, 2% of the Moon is Illuminated
Apr 11
New Moon
Apr 18
First Quarter
Apr 25
Full
May 2
Last Quarter
May 9
New

Hourly Weather History & Observations

Time (EDT) Temp. Windchill Dew Point Humidity Pressure Visibility Wind Dir Wind Speed Gust Speed Precip Events Conditions
12:15 AM 37.0 °F 28.1 °F 30.7 °F 78% 29.98 in 10.0 mi NE 15.0 mph - N/A   Overcast
12:35 AM 37.0 °F 28.5 °F 29.8 °F 75% 29.99 in 10.0 mi NE 13.8 mph 21.9 mph N/A   Overcast
12:53 AM 37.2 °F 28.7 °F 28.9 °F 72% 29.96 in 10.0 mi NE 13.8 mph - N/A   Overcast
1:15 AM 37.0 °F 27.4 °F 27.7 °F 69% 29.95 in 10.0 mi NE 17.3 mph 26.5 mph N/A   Mostly Cloudy
1:35 AM 37.2 °F 28.3 °F 27.9 °F 69% 29.95 in 10.0 mi NE 15.0 mph 20.7 mph N/A   Overcast
1:55 AM 36.9 °F 28.2 °F 27.7 °F 69% 29.95 in 10.0 mi ENE 13.8 mph 19.6 mph N/A   Drizzle
2:14 AM 36.9 °F 30.1 °F 27.9 °F 70% 29.98 in 10.0 mi ENE 9.2 mph 19.6 mph N/A Rain Light Rain
2:35 AM 36.1 °F 28.2 °F 28.9 °F 75% 29.96 in 10.0 mi ENE 11.5 mph 16.1 mph N/A Rain Light Rain
2:55 AM 35.6 °F 26.6 °F 30.2 °F 81% 29.94 in 7.0 mi NE 13.8 mph - N/A   Overcast
3:15 AM 34.9 °F 24.9 °F 31.3 °F 87% 29.93 in 5.0 mi NE 16.1 mph - N/A Rain Light Rain
3:35 AM 34.7 °F 26.4 °F 31.6 °F 89% 29.93 in 5.0 mi NE 11.5 mph 18.4 mph N/A Rain Rain
3:54 AM 34.3 °F 25.0 °F 32.0 °F 91% 29.93 in 5.0 mi NE 13.8 mph 18.4 mph N/A Rain Rain
4:15 AM 34.2 °F 25.2 °F 32.0 °F 92% 29.94 in 5.0 mi ENE 12.7 mph 19.6 mph N/A Snow Snow
4:35 AM 34.0 °F 24.2 °F 32.0 °F 92% 29.94 in 4.0 mi NE 15.0 mph 23.0 mph N/A Rain Rain
4:54 AM 34.2 °F 24.4 °F 32.5 °F 94% 29.92 in 5.0 mi NE 15.0 mph 24.2 mph N/A Rain Light Rain
5:15 AM 34.0 °F 20.1 °F 32.4 °F 94% 29.77 in 5.0 mi ENE 31.1 mph 40.3 mph N/A   Overcast
5:35 AM 33.8 °F 21.3 °F 32.5 °F 95% 29.78 in 10.0 mi ENE 24.2 mph 40.3 mph N/A   Overcast
5:55 AM 34.5 °F 26.2 °F 32.5 °F 92% 29.85 in 10.0 mi ENE 11.5 mph 36.8 mph N/A   Overcast
6:15 AM 34.9 °F 26.6 °F 32.4 °F 91% 29.89 in 10.0 mi ENE 11.5 mph 18.4 mph N/A   Overcast
6:35 AM 34.9 °F 24.2 °F 32.2 °F 90% 29.87 in 10.0 mi ENE 18.4 mph 25.3 mph N/A   Overcast
6:55 AM 34.9 °F 24.2 °F 32.0 °F 89% 29.89 in 10.0 mi ENE 18.4 mph 25.3 mph N/A   Overcast
7:14 AM 34.7 °F 24.0 °F 32.0 °F 90% 29.88 in 10.0 mi ENE 18.4 mph 21.9 mph N/A   Overcast
7:35 AM 34.7 °F 23.7 °F 31.6 °F 89% 29.88 in 10.0 mi ENE 19.6 mph 27.6 mph N/A   Drizzle
7:55 AM 34.3 °F 23.2 °F 31.6 °F 90% 29.87 in 10.0 mi ENE 19.6 mph 27.6 mph N/A   Overcast
8:15 AM 34.3 °F 24.2 °F 31.6 °F 90% 29.89 in 10.0 mi ENE 16.1 mph 26.5 mph N/A   Overcast
8:35 AM 34.7 °F 23.7 °F 31.8 °F 89% 29.88 in 10.0 mi ENE 19.6 mph 31.1 mph N/A   Overcast
8:55 AM 34.7 °F 23.1 °F 32.0 °F 90% 29.88 in 10.0 mi ENE 21.9 mph 29.9 mph N/A   Overcast
9:15 AM 35.1 °F 23.5 °F 32.0 °F 89% 29.88 in 10.0 mi ENE 21.9 mph 29.9 mph N/A   Overcast
9:35 AM 35.2 °F 24.4 °F 32.0 °F 88% 29.87 in 10.0 mi ENE 19.6 mph 31.1 mph N/A   Overcast
9:54 AM 34.9 °F 23.9 °F 32.0 °F 89% 29.85 in 5.0 mi ENE 19.6 mph 29.9 mph N/A Rain Light Rain
10:15 AM 35.1 °F 24.1 °F 32.9 °F 92% 29.86 in 3.0 mi ENE 19.6 mph 27.6 mph N/A Snow Light Snow
10:34 AM 35.2 °F 24.4 °F 33.3 °F 92% 29.85 in 10.0 mi ENE 19.6 mph 28.8 mph N/A   Overcast
10:55 AM 35.6 °F 24.0 °F 33.1 °F 91% 29.84 in 10.0 mi ENE 23.0 mph 32.2 mph N/A   Light Drizzle
11:15 AM 35.6 °F 23.7 °F 33.4 °F 92% 29.83 in 7.0 mi ENE 24.2 mph 35.7 mph N/A Rain Light Rain
11:35 AM 36.0 °F 25.0 °F 33.8 °F 92% 29.81 in 10.0 mi ENE 20.7 mph 31.1 mph N/A   Overcast
11:55 AM 35.8 °F 25.7 °F 33.1 °F 90% 29.83 in 7.0 mi ENE 17.3 mph 33.4 mph N/A Snow Snow
12:14 PM 35.6 °F 24.8 °F 33.6 °F 92% 29.81 in 3.0 mi ENE 19.6 mph 32.2 mph N/A Rain Light Rain
12:35 PM 35.6 °F 23.7 °F 33.8 °F 93% 29.80 in 4.0 mi ENE 24.2 mph 34.5 mph N/A Snow Light Snow
1:15 PM 35.6 °F 24.5 °F 33.3 °F 91% 29.80 in 7.0 mi ENE 20.7 mph 32.2 mph N/A   Overcast
1:35 PM 35.6 °F 25.2 °F 33.1 °F 91% 29.80 in 7.0 mi ENE 18.4 mph 27.6 mph N/A   Drizzle
1:54 PM 35.6 °F 25.5 °F 33.8 °F 93% 29.79 in 2.0 mi East 17.3 mph 27.6 mph N/A Snow Light Snow
2:15 PM 35.6 °F 24.8 °F 34.0 °F 94% 29.77 in 4.0 mi ENE 19.6 mph 34.5 mph N/A Rain Light Rain
2:34 PM 35.2 °F 24.4 °F 33.8 °F 94% 29.77 in 1.5 mi ENE 19.6 mph 27.6 mph N/A Snow Light Snow
2:55 PM 35.1 °F 26.4 °F 33.8 °F 95% 29.76 in 2.5 mi East 12.7 mph 25.3 mph N/A Snow Snow
3:15 PM 34.7 °F 23.7 °F 33.8 °F 97% 29.76 in 2.0 mi ENE 19.6 mph 28.8 mph N/A Snow Light Snow
3:34 PM 34.7 °F 25.1 °F 33.4 °F 95% 29.75 in 2.0 mi ENE 15.0 mph 21.9 mph N/A Rain Light Rain
3:55 PM 34.7 °F 24.0 °F 33.8 °F 97% 29.75 in 3.0 mi East 18.4 mph 28.8 mph N/A Snow Light Snow
4:15 PM 34.7 °F 24.7 °F 33.3 °F 94% 29.73 in 4.0 mi ENE 16.1 mph 31.1 mph N/A Rain Light Rain
4:35 PM 34.3 °F 22.9 °F 33.1 °F 95% 29.73 in 4.0 mi ENE 20.7 mph 29.9 mph N/A Snow Light Snow
4:55 PM 34.0 °F 22.1 °F 32.9 °F 96% 29.74 in 3.0 mi ENE 21.9 mph 28.8 mph N/A Rain Light Rain
5:15 PM 33.8 °F 21.3 °F 32.4 °F 94% 29.73 in 3.0 mi ENE 24.2 mph 28.8 mph N/A   Overcast
5:35 PM 33.4 °F 23.1 °F 32.4 °F 96% 29.72 in 1.5 mi ENE 16.1 mph 28.8 mph N/A Snow Light Snow
5:55 PM 33.8 °F 22.2 °F 32.4 °F 94% 29.72 in 7.0 mi ENE 20.7 mph 27.6 mph N/A   Overcast
6:15 PM 33.3 °F 22.5 °F 32.0 °F 95% 29.71 in 2.5 mi ENE 17.3 mph 28.8 mph N/A Snow Light Snow
6:35 PM 33.3 °F 20.3 °F 32.0 °F 95% 29.71 in 5.0 mi ENE 25.3 mph 38.0 mph N/A   Overcast
6:55 PM 33.3 °F 22.1 °F 32.0 °F 95% 29.71 in 3.0 mi ENE 18.4 mph 35.7 mph N/A Snow Light Snow
7:15 PM 33.3 °F 23.2 °F 32.0 °F 95% 29.70 in 3.0 mi ENE 15.0 mph 28.8 mph N/A Snow Light Snow
7:34 PM 33.3 °F 22.8 °F 32.0 °F 95% 29.70 in 7.0 mi ENE 16.1 mph 33.4 mph N/A Snow Light Snow
7:55 PM 33.3 °F 22.5 °F 32.0 °F 95% 29.69 in 7.0 mi ENE 17.3 mph 31.1 mph N/A Snow Light Snow
8:15 PM 33.3 °F 21.8 °F 32.0 °F 95% 29.71 in 10.0 mi ENE 19.6 mph 26.5 mph N/A   Overcast
8:34 PM 33.3 °F 23.7 °F 32.0 °F 95% 29.72 in 5.0 mi East 13.8 mph 23.0 mph N/A   Overcast
8:55 PM 33.1 °F 23.0 °F 32.0 °F 96% 29.71 in 5.0 mi East 15.0 mph 28.8 mph N/A Snow Light Snow
9:15 PM 33.3 °F 24.1 °F 32.0 °F 95% 29.72 in 4.0 mi East 12.7 mph 26.5 mph N/A   Overcast
9:35 PM 33.3 °F 22.5 °F 32.0 °F 95% 29.71 in 5.0 mi ENE 17.3 mph 26.5 mph N/A   Overcast
9:55 PM 33.3 °F 22.1 °F 32.0 °F 95% 29.66 in 10.0 mi ENE 18.4 mph 25.3 mph N/A   Overcast
10:14 PM 33.3 °F 22.1 °F 32.0 °F 95% 29.66 in 10.0 mi ENE 18.4 mph 28.8 mph N/A   Overcast
10:35 PM 33.4 °F 22.0 °F 32.0 °F 94% 29.65 in 10.0 mi ENE 19.6 mph 29.9 mph N/A   Overcast
10:54 PM 33.4 °F 22.3 °F 32.0 °F 94% 29.64 in 10.0 mi ENE 18.4 mph 31.1 mph N/A   Overcast
11:15 PM 33.6 °F 22.2 °F 32.0 °F 94% 29.65 in 10.0 mi East 19.6 mph 26.5 mph N/A   Overcast
11:35 PM 33.3 °F 22.8 °F 32.0 °F 95% 29.62 in 7.0 mi ENE 16.1 mph 33.4 mph N/A   Overcast
11:55 PM 33.3 °F 23.2 °F 32.0 °F 95% 29.65 in 10.0 mi ENE 15.0 mph 26.5 mph N/A   Overcast